Content
SEND FEEDBACK

Daily
Averages
Monthly
Summary
United States of America

MILLBRAE, CALIFORNIA


Home > North America > United States > California
Elevation: 40 feet     Latitude: 37 37N     Longitude: 122 22W

WEATHER
 
SELECT A DAY
Number of Records: 185,002;   Date Range: 1/1/95 - 9/3/14
 
SHARE

PRINT THIS DATA

[ ← Previous Day ]
WEATHER ALMANAC - FEBRUARY 13, 2013
[ Next Day → ]
[ °C ]   °F
Weather ElementAverageHighLow
Temperature48.3 °F59 °F (2:56 pm)41 °F (4:56 am)
Dewpoint42.5 °F46.9 °F (1:56 pm)35.1 °F (5:56 am)
Humidity80.8 %93 % (8:25 am)59 % (3:56 pm)
Barometer30.30 in30.35 in (7:56 am)30.23 in (5:56 pm)
Wind Speed5.7 mph15 mph (4:56 pm)
Weather ElementAverage
Visibility7.7 mi
Wind DirectionSSW (188.5 °)

Weather ElementTotal
Precipitation---
Heating Degree Days15 (Base 65)
Averaged from 26 records on February 13, 2013
WEATHER CONDITIONS BREAKOUT
WIND DIRECTION BREAKOUT
WEATHER BY HOUR - FEBRUARY 13, 2013
[ °C ]   °F
Local TimeTemperatureDewpointHumidityBarometerVisibilityWind DirectionWind SpeedGust SpeedPrecipitationEventsConditions
1:56 AM46.0 °F41.0 °F83 %30.34 in10.0 miSouth (180°)3.5 mphClear
2:56 AM43.0 °F37.9 °F82 %30.34 in10.0 miCalmPartly Cloudy
3:56 AM42.1 °F36.0 °F79 %30.33 in10.0 miCalmPartly Cloudy
4:56 AM41.0 °F36.0 °F82 %30.33 in10.0 miWest (280°)3.5 mphPartly Cloudy
5:56 AM41.0 °F35.1 °F79 %30.33 in10.0 miWest (270°)3.5 mphPartly Cloudy
6:47 AM42.8 °F37.4 °F81 %30.33 in9.0 miWest (280°)4.6 mphScattered Clouds
6:56 AM43.0 °F39.9 °F89 %30.33 in4.0 miWest (270°)4.6 mphScattered Clouds
7:56 AM45.0 °F42.1 °F90 %30.35 in5.0 miWest (280°)5.8 mphPartly Cloudy
8:25 AM46.4 °F44.6 °F93 %30.35 in5.0 miCalmMostly Cloudy
8:56 AM46.9 °F44.1 °F90 %30.35 in4.0 miCalmMostly Cloudy
9:44 AM48.2 °F44.6 °F87 %30.35 in3.0 miCalmScattered Clouds
9:56 AM50.0 °F45.0 °F83 %30.35 in3.0 miNNE (30°)3.5 mphHaze
10:56 AM51.1 °F45.0 °F80 %30.35 in5.0 miNorth (10°)4.6 mphHaze
11:56 AM52.0 °F45.0 °F77 %30.33 in4.0 miNNE (30°)3.5 mphHaze
12:56 PM52.0 °F46.0 °F80 %30.30 in4.0 miNNE (20°)4.6 mphHaze
1:56 PM55.9 °F46.9 °F72 %30.27 in5.0 miNW (310°)6.9 mphHaze
2:56 PM59.0 °F45.0 °F60 %30.26 in9.0 miWNW (300°)9.2 mphPartly Cloudy
3:56 PM57.0 °F43.0 °F59 %30.25 in10.0 miWNW (300°)11.5 mphPartly Cloudy
4:56 PM52.0 °F42.1 °F69 %30.24 in10.0 miWNW (300°)15.0 mphPartly Cloudy
5:56 PM50.0 °F44.1 °F80 %30.23 in10.0 miWNW (290°)12.7 mphPartly Cloudy
6:56 PM50.0 °F45.0 °F83 %30.23 in10.0 miWNW (300°)12.7 mphPartly Cloudy
7:56 PM50.0 °F44.1 °F80 %30.23 in10.0 miWNW (290°)12.7 mphPartly Cloudy
8:56 PM48.9 °F45.0 °F86 %30.24 in10.0 miWNW (290°)9.2 mphPartly Cloudy
9:56 PM48.9 °F44.1 °F83 %30.24 in10.0 miWNW (290°)5.8 mphPartly Cloudy
10:56 PM48.0 °F44.1 °F86 %30.24 in10.0 miWNW (290°)5.8 mphPartly Cloudy
11:56 PM46.0 °F43.0 °F89 %30.24 in10.0 miWNW (290°)4.6 mphPartly Cloudy
Hourly data recorded from KSFO, located miles away from Millbrae, California







STORIES FROM OUR PARTNERS